Regional Weather Roundup
Issued by NWS Grand Forks, ND

Home | Current Version | Previous Version | Graphics & Text | Print | Product List | Glossary On
Versions: 1 2 3 4 5 6 7 8 9 10 11 12 13 14 15 16 17 18 19 20 21 22 23 24 25 26 27 28 29 30 31 32 33 34 35 36 37 38 39 40 41 42 43 44 45 46 47 48 49 50
000
ASUS43 KFGF 132331
RWRFGF
PRAIRIE TO PINES  WEATHER ROUNDUP
NATIONAL WEATHER SERVICE EASTERN NORTH DAKOTA/GRAND FORKS ND
500 PM CST SAT FEB 13 2016

 **SATELLITE DATA USED TO AUGMENT SKY COVER AT AUTOMATED STATIONS**
 *****  WEATHER ACROSS EASTERN NORTH DAKOTA  *****

CITY           SKY/WX    TMP DP  RH WIND       PRES   REMARKS
GRAND FORKS    CLOUDY    10  -1  61 SE21      30.23F WCI  -9
GRAND FRKS AFB CLOUDY    10   0  61 S18       30.20F WCI  -8
DEVILS LAKE    CLOUDY     8   1  73 SE18      30.06F WCI -11
FARGO          CLOUDY    13   0  56 SE21      30.23F WCI  -5
WAHPETON ARPT  CLOUDY    12   1  62 SE22G29   30.24F WCI  -7
$$

 ***** WEATHER ACROSS CENTRAL AND WESTERN NORTH DAKOTA  *****

CITY           SKY/WX    TMP DP  RH WIND       PRES   REMARKS
BISMARCK       LGT SNOW  18  12  77 SE16      29.94F VSB 1   WCI   3
MINOT          LGT SNOW  18   9  68 SE12      29.89F WCI   5
JAMESTOWN      CLOUDY     9   1  70 SE20      30.06F WCI -10
MINOT AFB      CLOUDY    18  10  73 SE17      29.89F WCI   2
GARRISON         N/A     14  10  84 SE17      29.88F WCI  -3
WILLISTON      LGT SNOW  21  18  88 SE5       29.79F FOG     WCI  15
DICKINSON      CLOUDY    21  17  84 S14       29.80S WCI   8
HETTINGER      LGT SNOW  22  19  89 SE6       29.85S FOG     WCI  14
$$

 *****  OTHER AIRPORT OBSERVATIONS IN OUR AREA  *****

CITY           SKY/WX    TMP DP  RH WIND       PRES   REMARKS
WALHALLA       FAIR       7   0  72 SE18      30.18S WCI -12
GRAFTON AIRPOR CLOUDY     9   0  66 SE21      30.23F WCI -11
VALLEY CITY AR FLURRIES   7   1  78 SE15G28   30.13F WCI -11
CANDO          CLOUDY     7   1  78 SE21      30.07F WCI -13
CAVALIER APRT  CLOUDY     7   0  72 SE15G21   30.20F WCI -11
GWINNER        FAIR      10   5  79 SE20      30.14F WCI  -8
SHEYENNE NWR     N/A      9  -1  64 SE15      29.95  WCI  -8
ROLLA          CLOUDY     5   0  78 S18G24    30.00F WCI -15
 ***** THE ABOVE OBSERVATIONS ARE NON NWS ARE NOT QUALITY
       CONTROLLED AND MAY MIS-REPORT RAIN FOR SNOW...
$$

  *****  WEATHER ACROSS NORTHERN MINNESOTA  *****

CITY           SKY/WX    TMP DP  RH WIND       PRES   REMARKS
FLAG ISLAND    CLOUDY     3 -11  51 SE5       30.29F WCI  -6
WARROAD        CLOUDY     5  -8  56 CALM      30.29F
ROSEAU         CLOUDY     7  -8  51 E7        30.27F WCI  -5
HALLOCK        CLOUDY     9  -6  52 SE16      30.22F WCI  -9
THF RVR FALLS  CLOUDY     9 N/A N/A E12       30.24F WCI  -6
BAUDETTE       CLOUDY     7 -11  43 E10       30.29F WCI  -8
WASKISH        CLOUDY    10 -11  37 E8        30.29F WCI  -1
CROOKSTON      CLOUDY    10   0  61 SE17      30.25F WCI  -7
STEPHEN NDAWN    N/A     10   0  61 SE12        N/A  WCI  -4
GREENBUSH NDAW   N/A      7  -6  56 SE10        N/A  WCI  -8
$$
  *****  WEATHER ACROSS CENTRAL AND WEST MINNESOTA  *****

CITY           SKY/WX    TMP DP  RH WIND       PRES   REMARKS
FOSSTON        CLOUDY    10 -11  37 SE7       30.25F WCI   0
BEMIDJI        CLOUDY     7 -10  44 SE10      30.28F WCI  -7
PARK RAPIDS    CLEAR     11  -9  40 SE13      30.28F WCI  -4
ELBOW LAKE     CLOUDY    11   0  59 E20       30.27F WCI  -7
WADENA         CLOUDY     5  -8  56 SE10      30.29F WCI -10
DETROIT LAKES  CLOUDY    10   0  61 SE14      30.24F WCI  -5
MOORHEAD       CLOUDY    12   1  62 SE23      30.23F WCI  -7
FERGUS FALLS   CLOUDY    12   1  62 SE18G26   30.29F WCI  -5
MORRIS MN      CLOUDY    10   0  61 SE24      30.27F WCI -10
STAPLES        CLOUDY     7  -9  47 SE8       30.32F WCI  -6
$$
  *****  WEATHER ELSEWHERE ACROSS MINNESOTA  *****

CITY           SKY/WX    TMP DP  RH WIND       PRES   REMARKS
DULUTH         CLEAR      7 -12  41 S6        30.36F WCI  -3
INTRNTL FALLS  CLOUDY     4 -12  48 E6        30.34F WCI  -7
ELY            CLEAR      5 -11  47 CALM      30.35F
CLOQUET        CLEAR      9 -18  28 S3        30.37F
WHEATON        FLURRIES  10   3  72 SE23G29   30.27F WCI -10
BRAINERD       CLEAR      8 -11  41 SE9       30.35F WCI  -5
HIBBING        CLOUDY     7 -13  39 SE6       30.35F WCI  -3
ALEXANDRIA     CLOUDY    11  -3  53 SE17      30.29F WCI  -6
SAINT CLOUD    CLOUDY     9  -6  50 SE13      30.39F WCI  -7
MINNEAPOLIS    CLOUDY     9  -9  44 SE8       30.45F WCI  -3
$$

  *****  WEATHER ACROSS SOUTH DAKOTA  *****

CITY           SKY/WX    TMP DP  RH WIND       PRES   REMARKS
SIOUX FALLS    CLOUDY    11   1  64 SE15      30.24F WCI  -5
BROOKINGS      CLOUDY     9   0  67 SE18G26   30.19F WCI -10
WATERTOWN      CLOUDY     9  -2  61 SE18G30   30.13F WCI -10
HURON          CLOUDY    13   4  67 S23G33    30.13F WCI  -6
SISSETON         N/A     10   2  69 S22       30.20F WCI -10
ABERDEEN       CLOUDY    16   5  62 S24G32    30.12F WCI  -2
MITCHELL       CLOUDY    14   7  73 SE29G35   30.16F WCI  -7
PIERRE         FRZ RAIN  28  25  88 SE24G31   29.88R WCI  14
MOBRIDGE       CLOUDY    22  16  78 SE23G33   29.87F WCI   6
RAPID CITY     SUNNY     50  33  52 S13       29.70F
$$

  *****  SOME WEATHER IN NEARBY STATES *****

CITY           SKY/WX    TMP DP  RH WIND       PRES   REMARKS
GLASGOW MT     CLOUDY    37  31  78 W15       29.80R
GREAT FALLS MT SUNNY     47  18  31 W26G32    29.97R
CHEYENNE WY    CLOUDY    52  20  28 W41G52    29.92S
SCOTTSBLUFF NE CLOUDY    57  23  26 W13       29.82F
OMAHA NE       CLOUDY    19   3  49 SE14      30.34F WCI   6
DES MOINES IA  CLOUDY    15  -2  46 SE9       30.42F WCI   3
DAVENPORT IA   CLOUDY    16  -7  35 E5        30.49F WCI   9
CHICAGO IL     PTCLDY    15  -5  40 W7        30.51F WCI   5
EAU CLAIRE WI  CLOUDY     7 -12  41 CALM      30.46F
LA CROSSE WI   CLEAR     11 -10  38 CALM      30.50F
$$

  *****  SOME NATIONAL WEATHER *****

CITY           SKY/WX    TMP DP  RH WIND       PRES   REMARKS
LA GUARDIA NY  PTCLDY    13  -8  39 NW30G45   30.23R WCI  -8
RALEIGH NC     PTCLDY    30  -2  25 VRB6      30.35R WCI  24
ATLANTA GA     CLEAR     39   5  24 N14       30.35R
NEW ORLEANS LA PTCLDY    61  31  32 N6        30.33F
OKLAHOMA CITY  MOSUNNY   58  33  39 SE21      30.10F
ALBUQUERQUE NM MOSUNNY   68  14  12 S7        30.10F
SALT LAKE CITY MOSUNNY   36  29  75 CALM      30.27F HAZE
LOS ANGELES CA PTSUNNY   57  54  88 W13       30.06S FOG
BOISE ID       SUNNY     51  26  37 N8        30.27F
SEATTLE WA     LGT RAIN  46  43  89 S13       30.17F
$$

*** WEATHER ACROSS MANITOBA...SASKATCHEWAN AND ONTARIO ***
                ***ONTARIO***

CITY           SKY/WX    TMP DP  RH WIND       PRES   REMARKS
GERALDTON      CLEAR     -6 -15  65 W3        30.37R
THUNDER BAY    PTCLDY     5 -11  47 SW5       30.44F WCI  -4
SIOUX LOOKOUT  MOCLDY    -2 -13  60 E2        30.34F
TORONTO        PTCLDY     0 -17  46 N14       30.36R WCI -19
BIG TROUT LK   CLEAR     -9 -15  77 S3        30.32F
PICKLE LAKE    CRYSTALS   0 -13  55 W5        30.31F WCI -10
DRYDEN         MOCLDY     1 -11  55 SE2       30.32F
KENORA         MOCLDY     1 -11  55 S9        30.28F WCI -14
$$
                *** MANITOBA***

CITY           SKY/WX    TMP DP  RH WIND       PRES   REMARKS
BRANDON        FLURRIES   7   0  72 SE15G24   30.03F WCI -11
DAUPHIN        FLURRIES   5  -2  72 SE16G22   30.00F WCI -14
ISLAND LAKE    PTCLDY     1  -9  60 SE8       30.24F WCI -12
PILOT MOUND      N/A      5   0  78 SE24G31     N/A  WCI -17
THE PAS        CLOUDY     7  -4  61 SE20G25   29.94F WCI -13
THOMPSON       PTCLDY     3  -8  60 S7        30.05F WCI  -9
WINNIPEG       PTCLDY     5 -11  47 SE20G26   30.23F WCI -15
LYNN LAKE      CLOUDY     9  -2  61 S13G22    29.82F WCI  -7
CHURCHILL      CLOUDY    -2  -9  71 S17       30.08F WCI -24
GILLAM         CLOUDY     1 -11  55 S9G17     30.16F WCI -14
$$
                ***SASKATCHEWAN***

CITY           SKY/WX    TMP DP  RH WIND       PRES   REMARKS
ESTEVAN        SNOW      16  12  86 SE13G20   29.81F VSB 1/2 WCI   2
KINDERSLEY     PTSUNNY   28  25  86 W7        29.79R WCI  21
LLOYDMINSTER   CLOUDY    30  27  86 W13       29.74R WCI  20
PRINCE ALBERT  FLURRIES  10   7  85 E3        29.82F
REGINA         CLOUDY    21  16  79 SE15G21   29.76R WCI   8
YORKTON        CLOUDY     9   5  85 SE15G21   29.86F WCI  -8
N. BATTLEFORD  CLOUDY    19  16  86 VRB2      29.80R
LA RONGE       FLURRIES  10   5  79 S9        29.77F WCI  -2
SASKATOON      LGT SNOW  19  18  93 NW3       29.80R
SWIFT CURRENT  LGT SNOW  25  23  93 W21       29.77F WCI  10
$$
NOTE: THESE ARE AUTOMATED STATIONS WITH LIMITED QUALITY CONTROL
      "FAIR" INDICATES FEW OR NO CLOUDS BELOW 12,000 FEET WITH NO
      SIGNIFICANT WEATHER AND/OR OBSTRUCTIONS TO VISIBILITY.
      SKY/WX - SKY CONDITION AND SIGNIFICANT WEATHER.
      TMP - AIR TEMPERATURE.    DP   - DEWPOINT TEMPERATURE.
      RH  - RELATIVE HUMIDITY.  PRES - PRESSURE.
      HX  - HEAT INDEX.         WCI  - WIND CHILL INDEX.
$



USA.gov is the U.S. government's official web portal to all federal, state and local government web resources and services.